User: anonymous   Login
Location: Crab Orchard
(37.7292°N, 88.8042°W)
Time: 00:25:36
(UTC+00:00)
Language:

Cosmos 1346 Rocket - Orbit

View from above orbital plane
View from above orbital plane
View from above satellite
View from above satellite

Ground track
Ground track

The orbit data is extracted from the following two-line orbital elements,

1 13121U 82027B   20047.47365676 -.00000142 +00000-0 -10501-4 0  9994
2 13121 081.1623 079.4012 0022092 160.8228 199.3833 15.08833177063880
Epoch (UTC): 16 February 2020 11:22:03
Eccentricity: 0.0022092
inclination: 81.1623°
perigee height: 524 km
apogee height: 555 km
right ascension of ascending node: 79.4012°
argument of perigee: 160.8228°
revolutions per day: 15.08833177
mean anomaly at epoch: 199.3833°
orbit number at epoch: 6388

The dashed part of the orbit path shows where the satellite is in the earth's shadow,  

DLR